Weather History for Martha's Vineyard, MA

Change the Weather History Date:

Thursday, February 14, 2013

  Actual Average Record
Temperature  
Mean Temperature 34 °F -  
Max Temperature 43 °F 38 °F 54 °F (1951)
Min Temperature 21 °F 20 °F -1 °F (1954)
Degree Days  
Heating Degree Days 32    
Moisture  
Dew Point 28 °F    
Average Humidity 85    
Maximum Humidity 100    
Minimum Humidity 45    
Precipitation  
Precipitation 0.09 in - - ()
Sea Level Pressure  
Sea Level Pressure 29.81 in    
Wind  
Wind Speed 8 mph (North)    
Max Wind Speed 15 mph    
Max Gust Speed 18 mph    
Visibility 7 miles    
Events Snow    
Averages and records for this station are not official NWS values.
T = Trace of Precipitation, MM = Missing Value Source: NWS Daily Summary

Daily Weather History Graph

Daily Weather History Graph

Search for Another Location

Airport:

Trip Planner

Search our weather history database for the weather conditions in past years. The results will help you decide how hot, cold, wet, or windy it might be!

Date:

Astronomy

Feb. 14, 2013 Rise Set
Actual Time 6:38 AM EST 5:15 PM EST
Civil Twilight 6:10 AM EST 5:43 PM EST
Nautical Twilight 5:37 AM EST 6:16 PM EST
Astronomical Twilight 5:05 AM EST 6:48 PM EST
Moon 8:34 AM EST (2/14) 10:19 PM EST (2/14)
Length of Visible Light 11h 33m
Length of Day
10h 36m
Waxing Crescent, 21% of the Moon is Illuminated
Feb 14
Waxing Crescent
Feb 17
First Quarter
Feb 25
Full
Mar 4
Last Quarter
Mar 11
New

Hourly Weather History & Observations

Time (EST) Temp. Windchill Dew Point Humidity Pressure Visibility Wind Dir Wind Speed Gust Speed Precip Events Conditions
12:44 AM 33.8 °F 27.0 °F 26.6 °F 75% 29.69 in 10.0 mi North 8.1 mph - 0.00 in Snow Light Snow
12:53 AM 33.1 °F 26.1 °F 28.0 °F 82% 29.70 in 2.5 mi North 8.1 mph - 0.00 in Snow Light Snow
12:56 AM 33.8 °F 27.7 °F 28.4 °F 81% 29.70 in 1.2 mi North 6.9 mph - 0.00 in Snow Light Snow
1:02 AM 32.0 °F 24.8 °F 28.4 °F 87% 29.69 in 0.8 mi North 8.1 mph - 0.00 in Snow Light Snow
1:15 AM 32.0 °F 24.8 °F 30.2 °F 93% 29.68 in 1.0 mi North 8.1 mph - 0.01 in Snow Light Snow
1:39 AM 32.0 °F 25.6 °F 32.0 °F 100% 29.69 in 0.8 mi North 6.9 mph - 0.02 in Snow Light Snow
1:53 AM 32.0 °F 24.8 °F 32.0 °F 100% 29.69 in 1.0 mi North 8.1 mph - 0.03 in Snow Light Snow
2:16 AM 32.0 °F 23.0 °F 30.2 °F 93% 29.68 in 2.5 mi North 11.5 mph - 0.01 in Snow Light Snow
2:33 AM 32.0 °F 24.2 °F 30.2 °F 93% 29.67 in 1.2 mi North 9.2 mph - 0.01 in Snow Light Snow
2:53 AM 32.0 °F 25.6 °F 30.9 °F 96% 29.68 in 1.8 mi North 6.9 mph - 0.02 in Snow Light Snow
3:26 AM 32.0 °F 24.8 °F 32.0 °F 100% 29.67 in 2.0 mi North 8.1 mph - 0.01 in Snow Light Snow
3:36 AM 32.0 °F 24.2 °F 32.0 °F 100% 29.67 in 1.2 mi North 9.2 mph - 0.01 in Snow Light Snow
3:53 AM 32.0 °F 23.6 °F 32.0 °F 100% 29.67 in 1.2 mi North 10.4 mph - 0.02 in Snow Light Snow
4:07 AM 32.0 °F 23.6 °F 32.0 °F 100% 29.67 in 2.0 mi North 10.4 mph - 0.00 in Snow Light Snow
4:34 AM 32.0 °F 23.0 °F 30.2 °F 93% 29.68 in 4.0 mi North 11.5 mph - 0.01 in Snow Light Snow
4:53 AM 32.0 °F 23.0 °F 30.9 °F 96% 29.70 in 10.0 mi NNW 11.5 mph - 0.01 in   Overcast
5:53 AM 32.0 °F 23.0 °F 30.9 °F 96% 29.73 in 10.0 mi North 11.5 mph - 0.01 in   Overcast
6:24 AM 30.2 °F 23.4 °F 28.4 °F 93% 29.74 in 10.0 mi NNW 6.9 mph - N/A   Scattered Clouds
6:53 AM 28.9 °F 23.9 °F 28.0 °F 96% 29.75 in 9.0 mi NNW 4.6 mph - N/A   Clear
7:53 AM 30.9 °F 23.5 °F 28.0 °F 89% 29.78 in 10.0 mi NNW 8.1 mph - N/A   Clear
8:53 AM 34.0 °F 25.5 °F 30.0 °F 85% 29.82 in 10.0 mi NNW 11.5 mph - N/A   Mostly Cloudy
9:53 AM 36.0 °F 27.5 °F 28.9 °F 76% 29.85 in 10.0 mi NNW 12.7 mph - N/A   Clear
10:53 AM 37.9 °F 29.2 °F 28.9 °F 70% 29.87 in 10.0 mi North 15.0 mph - N/A   Clear
11:53 AM 39.9 °F 32.9 °F 28.9 °F 65% 29.89 in 10.0 mi NNW 11.5 mph 18.4 mph N/A   Clear
12:53 PM 41.0 °F 34.7 °F 27.0 °F 57% 29.90 in 10.0 mi North 10.4 mph - N/A   Partly Cloudy
1:53 PM 42.1 °F 37.1 °F 24.1 °F 49% 29.91 in 10.0 mi North 8.1 mph - N/A   Scattered Clouds
2:53 PM 43.0 °F 40.3 °F 23.0 °F 45% 29.92 in 10.0 mi WNW 4.6 mph - N/A   Clear
3:53 PM 39.0 °F 32.3 °F 27.0 °F 62% 29.95 in 10.0 mi South 10.4 mph - N/A   Clear
4:53 PM 37.0 °F 32.4 °F 27.0 °F 67% 29.96 in 10.0 mi SSE 5.8 mph - N/A   Clear
5:53 PM 32.0 °F 27.5 °F 26.1 °F 79% 30.00 in 10.0 mi South 4.6 mph - N/A   Clear
6:53 PM 28.9 °F - 25.0 °F 85% 30.01 in 10.0 mi Calm Calm - N/A   Clear
7:53 PM 27.0 °F - 25.0 °F 92% 30.02 in 10.0 mi Calm Calm - N/A   Clear
8:53 PM 25.0 °F - 23.0 °F 92% 30.02 in 10.0 mi Calm Calm - N/A   Clear
9:53 PM 25.0 °F - 23.0 °F 92% 30.02 in 10.0 mi Calm Calm - N/A   Clear
10:53 PM 24.1 °F - 21.9 °F 91% 30.03 in 10.0 mi Calm Calm - N/A   Clear
11:53 PM 21.9 °F - 21.9 °F 100% 30.03 in 10.0 mi Calm Calm - N/A   Clear